Location: *
(51.8167°N, 12.5000°E)
Time: 04:26:55
(UTC+00:00)

Cosmos 2219 - Pass Details

Date: 16 September 2019
Orbit: 834 x 860 km, 71.1° (Epoch: 18 October)

Event Time Altitude Azimuth Distance (km) Brightness Sun altitude
Rises 19:29:38 0° 199° (SSW) 3,422 6.2 -19.3°
Reaches altitude 10° 19:32:05 10° 198° (SSW) 2,491 5.5 -19.6°
Maximum altitude 19:37:46 70° 116° (ESE) 917 3.1 -20.3°
Drops below altitude 10° 19:43:30 10° 34° (NE) 2,503 5.7 -21.1°
Sets 19:45:58 0° 32° (NNE) 3,441 6.4 -21.4°
